Tracking 20370 objects as of 19-Feb-2020
HD Live streaming from Space Station
objects crossing your sky now
Track the group of recently launched Starlink satellites

SL-14 R/B

Track SL-14 R/B now!
10-day predictions


NORAD ID: 11087
Int'l Code: 1978-100D
Perigee: 1,694.4 km
Apogee: 1,708.3 km
Inclination: 82.5 °
Period: 120.3 minutes
Semi major axis: 8072 km
RCS: 5.2593 m2 (large)
Launch date: October 26, 1978
Source: Commonwealth of Independent States (former USSR) (CIS)
Launch site: PLESETSK MISSILE AND SPACE COMPLEX (PKMTR)

Note: This is a ROCKET BODY
aabbcc
Your satellite tracking list
Your tracking list is empty




NASA's NSSDC Master Catalog

Two Line Element Set (TLE):
1 11087U 78100D   20049.47480642  .00000052  00000-0  55259-3 0  9999
2 11087  82.5442 264.3898 0008605 246.1761 126.4380 11.97025251805482
Source of the keplerian elements: AFSPC